Powrót do katalogu

XINGJIYUAN-1

AktywnyNaukaSSO
NORAD 64090·PAYLOAD·🇨🇳 China
Ta nazwa satelity nie została jeszcze potwierdzona przez oficjalne źródła.

Wystrzelony May 21, 2025 z Jiuquan Satellite Launch Center

Loading…

Następne Przeloty (najbliższe 24 godziny)

TLE

ŚwieżeSource: Space-Track

Epoka: Sep 14, 2026, 15:05 UTC

1 64090U 25108D   26257.62882056  .00004357  00000-0  20756-3 0  9996
2 64090  97.4619 332.2283 0013172  57.8146 302.4364 15.19581963 72947

Śledź XINGJIYUAN-1 w czasie rzeczywistym z AllMySat

Download on the App Store